Weather in Kochmes

Russia / Komi Republic     66°21′35″N   60°00′52″E
temp.,
°C
wind,
m/s
gust,
m/s
humid.,
%
clouds,
%
prec.,
mm/h
press.,
hPa
HPBL,
m
23 june, wed
wed2300:00+8ene45665 0.0 102151
03:00+9ene23655 0.0 1022107
06:00+13ese33510 0.0 1021540
09:00+16sse22425 0.0 1019979
12:00+19sw12345 0.0 10181212
15:00+22wnw2324100 0.0 10171609
18:00+20nne223983 0.0 1015313
21:00+15ese3364100 0.9 101556
24 june, thu
thu2400:00+14sse2278100 0.1 101541
03:00+15nne3377100 0.1 101576
06:00+16ne555768 0.0 1015471
09:00+18ne55645 0.0 1015767
12:00+20nne445799 0.0 10151313
15:00+21ne4342100 0.0 10151308
18:00+19nne443720 0.0 1014691
21:00+14ne5952100 0.0 1013145
25 june, fri
fri2500:00+13ene5853100 0.0 1012170
03:00+12ne61058100 0.3 1011249
06:00+9ene111585100 3.8 1009404
09:00+10ne81192100 11.1 1009371
12:00+11ne81091100 0.1 1011567
15:00+12ne7108366 0.1 1012590
18:00+12ne697871 0.0 1014484
21:00+10ne48885 0.0 1014170
26 june, sat
sat2600:00+8nne610805 0.0 1016172
03:00+8nne69745 0.0 1017203
06:00+13ne686855 0.0 1017558
09:00+17ene67525 0.0 10181121
12:00+19ene66435 0.0 10181498
15:00+19e5540100 0.0 10181516
18:00+18e5650100 0.0 1018612
21:00+13e45655 0.0 101845
27 june, sun
sun2700:00+10ese5773100 0.0 101787
03:00+12ssw3580100 0.0 1016127
06:00+16sw6768100 0.0 1016648
09:00+15sw6767100 0.1 1016641
12:00+17wsw5567100 1.4 1015687
15:00+18wsw5560100 1.8 1015997
18:00+15nnw228029 0.2 101425
21:00+13nne3379100 0.6 101531